Wind_Speed
4 7 2 2 3 7 6 3 3 3 5 7 5 5 8 13 20 23 17 12 20 24 32 34 36 38 39 39 40 35 34 33 30 25 23 22 20 18 18 19 16 13 13 13
4 7 6 4 5 7 5 3 6 5 8 5 7 8 11 8 15 23 20 11 14 14 21 29 35 37 36 36 39 40 38 36 32 26 26 24 23 23 23 23 19 20 19 16
3 3 4 6 6 6 2 6 4 4 1 2 10 15 18 12 11 15 20 14 8 7 13 20 29 35 35 34 36 36 37 34 32 29 28 26 26 24 29 26 21 20 24 21
3 4 4 2 4 9 7 5 5 6 6 10 12 18 19 17 12 13 12 14 9 7 5 9 22 28 32 35 34 34 34 33 33 33 33 27 26 27 23 25 25 25 24 24
3 1 4 2 1 3 2 2 3 4 6 9 10 6 16 14 14 13 10 10 9 5 4 5 5 9 27 26 25 28 28 27 30 28 29 29 33 30 28 20 23 24 22 26
2 4 7 4 3 1 3 1 4 4 1 2 3 3 1 8 10 10 8 6 4 3 4 4 12 13 9 5 16 16 22 22 24 26 24 26 30 30 25 20 20 19 18 19
2 2 4 6 7 1 5 6 6 2 2 1 3 4 9 4 5 7 7 6 5 3 1 2 3 11 15 14 15 20 16 19 21 21 19 20 15 13 12 12 12 13 13 13
1 3 5 1 2 6 4 16 13 6 2 5 11 10 7 5 5 4 5 4 3 3 3 5 3 8 13 12 12 15 15 19 7 9 17 11 9 8 12 13 12 12 11 11
7 5 4 3 2 3 6 14 14 9 6 8 8 5 4 4 4 5 4 5 4 4 4 7 6 5 5 7 5 9 8 10 12 15 13 10 14 12 12 11 11 12 14 12
2 3 3 2 1 3 9 9 10 8 7 6 6 4 4 5 4 6 8 8 7 7 7 9 9 8 9 6 4 4 10 15 17 16 16 18 18 16 15 14 14 12 11 11
3 4 3 5 4 9 10 8 11 10 5 3 8 11 10 8 6 7 9 9 8 8 9 11 10 10 10 10 8 7 10 11 11 10 9 10 10 13 14 14 15 15 14 13
6 15 9 11 11 14 14 12 11 11 12 11 11 15 16 14 12 12 10 10 9 8 9 9 8 8 8 7 8 8 10 11 10 9 7 4 4 3 3 1 1 6 9 9
4 15 13 17 17 17 15 14 13 11 11 14 15 15 17 16 13 12 11 10 11 11 11 10 9 8 8 8 8 7 7 9 9 9 10 9 5 3 2 1 2 1 2 1
9 17 11 19 22 18 15 14 14 15 12 11 14 15 13 13 14 13 12 10 10 11 11 11 10 9 7 6 6 6 5 5 6 3 3 5 5 6 5 5 6 3 1 2
15 27 23 22 20 19 19 16 16 16 15 13 11 10 10 11 12 11 10 9 9 2 3 1 2 3 3 3 3 2 3 3 2 2 2 2 1 2 2 3 3 4 3 3
21 21 16 25 25 23 20 17 15 15 14 15 12 11 8 7 8 10 8 8 5 0 1 2 2 2 2 2 2 1 1 2 2 1 1 2 3 4 6 6 5 6 5 5
20 18 15 25 28 25 20 14 12 13 14 12 12 12 10 7 7 9 9 9 6 4 3 3 2 2 1 2 2 1 1 1 2 3 4 5 7 8 8 7 7 5 5 6
23 22 24 20 26 26 22 19 13 14 14 12 13 14 14 13 7 5 7 8 8 8 6 4 5 7 9 8 7 6 5 4 4 3 2 1 2 5 7 8 9 9 8 7
24 20 15 16 24 21 18 20 18 13 13 17 18 18 18 16 10 10 11 12 13 14 10 6 7 7 5 8 10 10 10 10 9 7 6 4 1 2 4 6 7 9 11 11
22 15 20 21 21 20 19 16 12 12 10 13 20 18 19 17 15 13 11 12 16 18 18 17 13 12 7 6 10 10 10 10 10 10 11 11 10 8 7 7 6 7 8 9
19 17 18 21 20 15 14 15 14 12 10 12 15 11 14 14 14 12 10 11 8 9 8 8 10 13 13 11 10 9 11 12 13 13 13 14 14 13 13 15 14 13 10 10
18 19 20 22 20 20 20 18 17 13 14 17 15 12 13 17 17 16 13 11 10 10 8 8 8 7 7 8 10 13 14 15 15 16 16 17 18 19 19 20 19 19 16 14
21 21 22 24 25 21 20 22 21 20 20 21 20 20 21 20 19 17 15 13 10 8 7 6 6 8 10 12 13 15 17 19 19 19 19 20 19 18 19 20 19 18 21 21
22 22 24 23 21 20 21 22 23 22 22 21 21 20 22 23 21 17 16 10 12 9 7 4 1 3 4 4 2 5 7 10 13 16 16 16 15 15 16 13 14 17 20 21
20 22 25 26 27 27 25 24 24 26 26 27 25 24 23 20 14 10 11 11 11 9 7 8 7 6 8 13 14 14 12 5 1 3 4 6 7 11 14 15 17 21 24 26
21 23 26 29 31 32 31 31 33 32 33 33 32 30 25 17 12 7 10 13 11 8 11 10 6 4 4 4 7 9 11 9 10 9 8 7 7 6 5 8 12 20 20 22
23 28 32 34 36 38 39 39 40 40 38 35 37 29 22 21 15 10 16 17 13 11 12 9 6 4 2 1 2 3 4 5 6 7 6 5 7 9 11 16 18 22 27 25
Wind_Direction
231 216 237 226 86 48 66 315 125 346 98 17 28 1 30 63 85 90 112 174 209 223 220 219 216 220 224 228 222 220 227 228 229 227 227 229 233 224 220 218 219 222 226 232
340 330 73 78 39 78 52 48 79 98 77 9 73 52 36 44 55 69 84 126 197 211 225 229 224 221 220 231 224 220 224 229 229 230 223 227 235 238 241 241 240 237 236 234
275 358 130 330 0 64 77 24 140 89 178 41 78 52 34 35 52 59 69 75 125 171 228 228 229 226 224 223 223 226 228 231 230 230 232 225 230 239 243 249 250 245 245 241
259 343 184 102 345 76 87 58 50 103 113 96 90 69 53 50 56 61 68 85 69 67 358 296 255 237 234 229 227 229 230 231 234 233 238 229 233 232 242 246 259 258 259 238
133 107 332 268 47 89 282 303 3 104 145 141 140 64 39 29 34 35 17 38 47 33 285 295 310 293 240 237 232 239 242 248 253 244 233 228 233 236 242 244 257 256 248 235
138 150 200 223 212 267 244 117 311 144 191 247 269 41 81 29 28 37 43 27 28 14 5 301 245 235 245 286 260 266 252 260 248 245 244 236 232 241 245 256 258 249 239 239
181 226 282 216 217 286 131 224 232 140 117 240 125 128 140 107 39 25 26 26 44 34 292 325 165 199 185 199 218 239 273 256 254 257 250 240 233 233 232 238 233 230 227 229
63 47 279 339 180 176 193 165 178 199 144 104 122 126 133 115 92 64 41 41 53 53 77 84 84 186 185 204 218 224 215 208 249 256 202 198 207 223 221 224 227 226 222 220
171 215 250 296 310 65 172 161 172 186 161 147 143 138 134 107 95 108 105 100 89 82 96 88 96 80 101 121 152 199 220 180 178 204 236 206 195 202 197 195 209 222 216 219
94 233 266 232 88 143 162 153 160 167 175 180 174 165 139 117 121 120 120 115 112 101 95 97 82 78 80 87 123 128 126 166 175 194 192 199 199 196 206 203 202 213 224 225
272 269 273 227 242 184 158 150 153 164 161 193 146 133 129 130 135 121 112 109 102 95 97 97 97 96 91 87 70 84 110 125 144 164 174 189 190 194 195 205 213 216 222 223
217 194 171 179 171 164 153 154 160 156 143 136 137 131 134 139 134 124 125 125 121 112 111 103 98 97 98 99 88 90 101 100 106 102 110 99 96 77 83 126 236 228 208 194
273 200 183 171 172 166 159 148 144 146 147 141 140 135 136 141 138 134 128 119 106 96 87 79 76 88 94 89 81 74 73 79 85 94 82 82 84 112 84 319 296 287 339 177
256 185 181 176 175 176 157 140 143 148 149 143 137 143 141 141 140 139 133 124 116 102 88 82 85 85 88 89 96 98 90 76 70 85 105 82 77 74 69 52 43 47 69 288
200 182 186 176 173 175 167 163 168 162 158 153 145 148 156 156 159 158 161 158 155 144 352 321 134 97 80 69 72 86 108 124 95 81 70 68 34 342 348 6 0 332 332 339
185 186 180 179 182 184 181 182 192 186 179 174 160 160 158 165 183 194 198 209 219 50 40 98 139 116 107 89 80 84 112 151 179 194 253 277 283 287 292 297 300 293 279 298
192 196 198 189 188 191 194 195 198 208 205 196 184 177 180 185 205 204 205 219 232 246 266 261 237 252 248 277 274 262 321 328 327 311 302 302 308 311 308 307 310 311 287 269
200 198 204 215 207 199 206 210 219 228 227 218 203 196 193 196 193 199 220 231 232 234 247 265 259 264 268 269 270 276 270 263 272 292 322 339 337 336 340 330 312 302 298 275
208 210 199 203 206 208 213 213 214 220 216 221 221 221 225 222 218 236 254 259 257 258 244 242 268 263 281 279 269 266 264 265 262 260 265 253 271 335 349 354 358 326 295 290
199 196 204 197 204 208 208 215 224 216 219 232 224 237 246 235 236 241 240 255 249 249 256 257 243 241 250 265 275 264 262 265 265 268 265 260 265 272 280 300 315 342 329 305
199 216 215 208 199 211 229 231 219 214 225 211 211 235 239 229 215 227 248 277 271 263 256 260 276 267 255 260 264 270 272 268 268 273 277 271 272 276 278 279 277 283 300 296
207 199 193 199 211 215 216 222 222 222 216 213 215 223 218 220 226 228 235 243 255 246 242 264 268 251 252 262 271 276 276 271 264 264 268 267 270 275 271 272 272 266 272 279
206 202 202 208 207 213 218 217 217 216 214 214 222 225 229 231 233 232 238 257 246 233 232 255 272 285 291 286 277 268 265 267 268 268 266 270 273 271 269 265 268 269 265 270
216 213 215 218 221 224 225 225 223 224 227 231 237 238 229 224 225 232 255 239 214 214 230 257 130 77 66 47 351 313 289 270 263 265 264 263 272 276 273 272 270 274 275 278
224 227 226 226 229 234 237 235 230 232 235 239 243 238 231 227 232 254 237 211 189 187 186 157 135 101 76 65 64 47 37 37 291 288 289 290 286 264 269 282 288 291 289 281
232 235 237 238 240 242 244 242 234 233 233 231 227 218 210 205 212 214 205 193 184 171 166 165 156 119 80 64 49 34 34 46 68 72 68 72 76 63 10 327 337 340 322 299
252 254 252 250 249 249 248 247 243 239 235 234 217 197 193 189 208 183 211 196 194 191 184 192 208 224 263 308 347 5 13 47 60 56 52 35 13 355 345 352 346 338 338 331
Height
1503 1511 1505 1502 1501 1500 1505 1507 1509 1515 1515 1515 1513 1512 1509 1506 1503 1499 1499 1505 1507 1510 1514 1518 1520 1523 1528 1532 1536 1542 1545 1549 1551 1555 1558 1561 1563 1565 1568 1570 1572 1573 1574 1574
1508 1500 1502 1509 1504 1502 1506 1508 1511 1514 1517 1518 1514 1512 1510 1508 1504 1498 1500 1500 1504 1508 1512 1515 1520 1522 1524 1528 1531 1536 1539 1543 1547 1551 1554 1556 1559 1561 1563 1565 1568 1568 1570 1571
1521 1512 1507 1519 1516 1512 1512 1511 1510 1519 1518 1518 1515 1515 1513 1511 1508 1505 1500 1500 1503 1505 1511 1515 1518 1520 1522 1525 1529 1534 1538 1540 1543 1546 1550 1551 1555 1556 1558 1560 1561 1563 1564 1567
1527 1517 1526 1516 1515 1512 1514 1516 1512 1514 1517 1515 1516 1515 1514 1514 1512 1508 1507 1502 1503 1500 1511 1515 1516 1519 1520 1523 1527 1531 1533 1535 1539 1541 1544 1545 1549 1551 1554 1556 1555 1558 1558 1560
1531 1537 1525 1519 1517 1518 1523 1517 1514 1513 1514 1515 1516 1514 1516 1512 1510 1506 1503 1504 1506 1506 1511 1511 1512 1515 1519 1522 1524 1528 1531 1535 1536 1537 1538 1539 1544 1546 1547 1550 1552 1553 1554 1555
1533 1529 1534 1517 1514 1516 1517 1526 1514 1513 1513 1513 1511 1515 1520 1517 1514 1512 1510 1510 1508 1511 1509 1510 1510 1512 1515 1518 1522 1525 1528 1532 1532 1534 1536 1538 1538 1540 1543 1545 1547 1549 1551 1552
1529 1528 1521 1508 1508 1512 1523 1526 1511 1511 1511 1511 1512 1514 1517 1519 1517 1516 1515 1514 1513 1513 1513 1513 1513 1513 1514 1516 1518 1520 1523 1527 1532 1532 1531 1532 1535 1536 1538 1543 1546 1548 1548 1549
1531 1530 1527 1508 1507 1510 1503 1502 1507 1511 1512 1512 1513 1512 1516 1519 1519 1519 1518 1517 1517 1516 1515 1513 1513 1514 1516 1520 1520 1519 1517 1521 1523 1522 1519 1524 1530 1534 1536 1542 1544 1547 1548 1549
1523 1523 1510 1509 1507 1504 1505 1504 1509 1512 1514 1515 1515 1515 1516 1518 1520 1519 1519 1519 1518 1518 1517 1516 1516 1515 1516 1516 1517 1518 1519 1522 1521 1527 1526 1522 1530 1534 1537 1539 1542 1545 1546 1548
1515 1510 1508 1507 1506 1507 1509 1510 1512 1513 1515 1516 1517 1517 1518 1519 1520 1521 1521 1520 1520 1519 1518 1519 1519 1519 1518 1519 1519 1521 1520 1520 1521 1525 1527 1530 1532 1532 1536 1538 1539 1542 1545 1546
1512 1507 1507 1505 1507 1507 1510 1511 1513 1515 1517 1519 1517 1518 1519 1520 1521 1522 1522 1524 1525 1524 1523 1522 1522 1521 1524 1524 1525 1524 1524 1525 1525 1526 1529 1532 1532 1532 1534 1537 1538 1538 1541 1543
1507 1495 1499 1502 1506 1508 1510 1513 1515 1516 1517 1520 1519 1518 1519 1522 1523 1523 1525 1526 1526 1527 1527 1527 1527 1527 1528 1528 1528 1529 1528 1529 1530 1531 1532 1534 1535 1534 1534 1536 1537 1538 1540 1543
1495 1495 1497 1499 1504 1508 1510 1512 1513 1516 1519 1519 1520 1520 1521 1524 1524 1525 1528 1530 1530 1531 1531 1531 1531 1531 1530 1531 1531 1532 1532 1532 1533 1535 1534 1535 1537 1538 1539 1539 1538 1540 1541 1542
1492 1494 1499 1500 1502 1507 1509 1512 1514 1516 1518 1519 1519 1522 1523 1524 1525 1528 1530 1531 1532 1533 1532 1532 1533 1533 1533 1533 1533 1534 1535 1536 1538 1538 1539 1540 1540 1540 1539 1541 1541 1540 1541 1543
1489 1493 1493 1498 1503 1507 1509 1511 1514 1515 1517 1518 1519 1521 1523 1524 1526 1529 1532 1534 1534 1534 1534 1534 1533 1532 1534 1534 1535 1535 1535 1535 1537 1538 1540 1540 1541 1543 1542 1540 1541 1543 1543 1542
1490 1494 1497 1498 1502 1505 1508 1510 1513 1515 1517 1519 1520 1522 1524 1526 1528 1530 1531 1533 1535 1535 1535 1536 1535 1535 1535 1535 1536 1536 1536 1537 1537 1538 1541 1543 1542 1542 1542 1541 1541 1542 1540 1541
1490 1494 1497 1500 1502 1505 1507 1510 1513 1514 1516 1518 1521 1524 1525 1527 1528 1528 1530 1532 1533 1535 1535 1536 1536 1536 1536 1536 1536 1536 1537 1537 1536 1537 1537 1538 1538 1538 1538 1538 1538 1538 1538 1537
1488 1491 1494 1496 1499 1503 1506 1509 1511 1513 1515 1517 1521 1523 1525 1527 1528 1529 1531 1532 1532 1533 1534 1535 1535 1535 1535 1535 1535 1536 1536 1536 1536 1537 1536 1536 1536 1537 1536 1536 1536 1538 1538 1538
1486 1490 1492 1494 1497 1501 1504 1506 1508 1510 1513 1516 1518 1520 1522 1525 1527 1529 1530 1530 1530 1532 1533 1533 1533 1533 1533 1533 1533 1533 1533 1534 1535 1535 1535 1536 1535 1536 1536 1537 1536 1536 1537 1536
1484 1487 1490 1493 1495 1498 1501 1503 1506 1508 1511 1513 1517 1518 1519 1521 1523 1525 1526 1527 1527 1529 1530 1530 1530 1530 1530 1530 1529 1529 1530 1531 1532 1533 1533 1533 1533 1534 1535 1535 1535 1535 1535 1534
1482 1485 1488 1491 1494 1496 1498 1501 1503 1505 1507 1510 1512 1515 1516 1518 1521 1522 1524 1524 1525 1526 1526 1527 1526 1526 1526 1526 1526 1526 1526 1527 1528 1529 1528 1529 1529 1530 1531 1531 1532 1532 1532 1532
1479 1482 1485 1488 1492 1494 1496 1498 1500 1502 1504 1506 1509 1511 1513 1515 1517 1519 1520 1521 1522 1523 1523 1524 1523 1523 1523 1523 1522 1522 1523 1523 1523 1524 1524 1524 1525 1525 1525 1526 1527 1528 1528 1529
1476 1478 1481 1483 1486 1489 1492 1494 1496 1498 1500 1503 1505 1506 1508 1510 1512 1514 1516 1517 1518 1520 1521 1521 1521 1521 1520 1519 1518 1518 1518 1518 1518 1519 1519 1520 1521 1522 1522 1522 1523 1523 1523 1524
1476 1478 1479 1481 1484 1486 1487 1489 1492 1494 1496 1498 1500 1502 1504 1506 1508 1510 1511 1513 1514 1516 1518 1518 1518 1518 1517 1516 1515 1514 1513 1513 1513 1514 1515 1516 1517 1518 1518 1518 1518 1518 1518 1517
1473 1476 1478 1480 1481 1481 1482 1485 1487 1489 1491 1493 1495 1498 1500 1502 1505 1507 1508 1511 1513 1514 1515 1516 1517 1517 1517 1516 1515 1515 1513 1511 1511 1512 1512 1513 1513 1513 1514 1515 1514 1513 1511 1509
1470 1471 1472 1474 1474 1475 1477 1479 1480 1481 1483 1485 1489 1492 1495 1499 1501 1502 1506 1510 1512 1512 1514 1515 1516 1517 1517 1517 1517 1516 1515 1514 1513 1513 1512 1512 1512 1513 1513 1512 1510 1507 1503 1499
1464 1465 1465 1466 1467 1468 1468 1469 1471 1472 1474 1477 1481 1486 1491 1494 1496 1499 1504 1508 1510 1511 1513 1514 1515 1516 1516 1517 1517 1517 1517 1516 1515 1515 1514 1514 1513 1512 1511 1509 1506 1502 1497 1492